{"data":{"norad_id":55269,"intl_designator":"2023-010A","name":"STARLINK-5277","alt_names":[],"object_type":"PAYLOAD","status":"ACTIVE","operator":null,"country":"US","launch_date":"2023-01-19","launch_site_code":"AFWTR","launch_vehicle":null,"mission":null,"orbit_class":"UNKNOWN","rcs_meters":null,"size_class":null,"mass_kg":null,"dimensions":null,"purposes":["comms"],"wikipedia_slug":null,"has_3d_model":false,"image_url":null,"decayed_at":null,"tle_current":{"epoch":"2026-09-20T22:00:03.000096Z","epoch_age_seconds":57436,"freshness":"FRESH","line1":"1 55269U 23010A   26263.91670139  .00110297  00000+0  73126-2 0  9998","line2":"2 55269  69.9990 272.2040 0005424 246.5522 325.8965 15.06643691  5766","mean_motion":15.06643691,"eccentricity":0.0005424,"inclination_deg":69.999,"raan_deg":272.204,"arg_perigee_deg":246.5522,"mean_anomaly_deg":325.8965,"bstar":0.0073126,"rev_number":576,"period_min":95.576678719853,"perigee_km":542.70887678647,"apogee_km":550.22068479827,"semimajor_km":6924.6017807924,"source":"CELESTRAK","updated_at":"2026-09-21T09:00:33.163593Z"}}}